Location: Albany
(35.0170°S, 117.8920°E)
Time: 23:51:53
(UTC+08:00)

S-56A Canister/Altair - Pass Details

Date: 18 June 2021
Orbit: 632 x 2501 km, 38.9° (Epoch: 24 July)

Event Time Altitude Azimuth Distance (km) Brightness Sun altitude
Rises 20:27:39 0° 256° (WSW) 6,162 12.9 -40.8°
Reaches altitude 10° 20:31:52 10° 254° (WSW) 5,064 12.3 -41.7°
Enters shadow 20:44:38 72° 234° (SW) 2,116 9.5 -44.3°
